If you wish to contribute or participate in the discussions about articles you are invited to join SKYbrary as a registered user

 Actions

Francisco De Orellana Airport

From SKYbrary Wiki

SECO
Airport
ICAO: SECO – IATA: OCC
Summary
Name Francisco De Orellana Airport
Region South America and Caribbean
Territory Ecuador EC.gif
Location , Orellana
Serving Coca
Elevation 254.203 m
834 ft
834 ft254.203 m
Type medium airport
Coordinates 0° 27' 46.39" S, 76° 59' 12.63" W
Runways
Designator Length Width Surface ROPS
15/33 2060 m6,758.53 ft
27 m88.583 ft
ASP /


METAR
Observation SECO 171300Z 17002KT CAVOK 24/23 Q1011 RMK A2988
Station COCA/FRANCISCO
Date/Time 17 February 2020 13:00:00
Wind direction 170°
Wind speed 02 kts
Lowest cloud amount clouds and visibility OK
Temperature 24°C
Dew point 23°C
Humidity 94%
QNH 1011 hPa
Weather condition n/a